IRIDIUM 169 (43926 NORAD) Tracking and Keplerian Element Data

This shows tracking and keplerian element data for the satellite.

Feedback or suggestion? Click here.




ElementValue
Catalog43926
NameIRIDIUM 169
Epoch Orbit87
Epoch Day17.65109356
Epoch Year2019
RAAN45.0533
Inclination86.6834
Eccentricity0.0012151
Argument of Perigee188.7935
Mean Anonmoly310.7662
Mean Motion14.83525211
Decay Rate-1.09E-06
L11 43926U 19002E 19017.65109356 -.00000109 00000-0 -16572-4 0 9996
L22 43926 86.6834 45.0533 0012151 188.7935 310.7662 14.83525211 874

Live tracking and technical data element details for IRIDIUM 169 (NORAD 43926). IRIDIUM 169 can be tracked NOW for your location showing map with azimuth and elevation plus other details from your city location.

Track the satellite on the map from your city or location and see movement details for azimuth, elevation, latitude, longitude, range, height, and movement on the map or in text.







IsCatalogInMostPopularTable: catalog: 43926, numindb: 2
Update: records affected: 1



GetName: 43926 IRIDIUM 169

Hit Count: updated at: Fri, 18 Jan 2019 22:08:06 GMT